K5IDL Weather Reports


Display with metric or nautical units.
time (UTC)temp
F
wind
direction
speed
MPH
gust
MPH
rain 1hr
in
rain 24hr
in
rain mn
in
humidity
%
barometer
mb
20260509032141 73 357 0.0 0.0 0.00 0.51 0.51 79 1011.4
20260509031639 73 1 0.0 0.0 0.00 0.51 0.51 79 1011.1
20260509031628 73 0.0 0.0 0.00 0.51 0.51 79 1011.2
20260509031136 73 351 0.0 0.0 0.00 0.51 0.51 79 1010.9
20260509030654 73 358 0.0 1.0 0.00 0.51 0.51 79 1011.3
20260509030635 73 358 0.0 0.0 0.00 0.51 0.51 78 1011.0
20260509030132 73 356 0.0 0.0 0.00 0.51 0.51 79 1011.1
20260509025719 73 0.0 0.0 0.00 0.51 0.51 79 1011.5
20260509025627 73 347 0.0 0.0 0.00 0.51 0.51 79 1011.2
20260509025123 73 355 0.0 0.0 0.00 0.51 0.51 79 1011.0
20260509024744 73 0.0 0.0 0.00 0.51 0.51 79 1011.2
20260509024619 73 357 0.0 0.0 0.00 0.51 0.51 79 1010.8
20260509024115 73 6 0.0 0.0 0.00 0.51 0.51 79 1010.9
20260509023706 72 0.0 0.0 0.00 0.51 0.51 79 1010.9
20260509023613 72 8 0.0 0.0 0.00 0.51 0.51 78 1010.7
20260509023110 72 349 0.0 0.0 0.00 0.51 0.51 79 1010.7
20260509022628 72 19 0.0 1.0 0.00 0.51 0.51 78 1010.4
20260509022606 72 30 0.0 0.0 0.00 0.51 0.51 79 1010.3
20260509022104 72 1 0.0 0.0 0.00 0.51 0.51 78 1010.0
20260509021714 73 0.0 0.0 0.00 0.51 0.51 78 1010.0
20260509021601 73 358 0.0 0.0 0.00 0.51 0.51 78 1009.7
20260509021058 73 5 0.0 0.0 0.00 0.51 0.51 77 1009.8
20260509020616 73 343 0.0 1.0 0.00 0.51 0.51 77 1010.3
20260509020557 73 347 0.0 0.0 0.00 0.51 0.51 77 1009.7
20260509020053 73 5 0.0 0.0 0.00 0.51 0.51 77 1009.9
20260509015825 73 343 0.0 1.0 0.00 0.51 0.51 77 1010.2
20260509015552 73 335 0.0 0.0 0.00 0.51 0.51 77 1009.9
20260509015049 73 349 0.0 0.0 0.00 0.51 0.51 76 1009.8
20260509014707 73 0.0 0.0 0.00 0.51 0.51 76 1010.0
20260509014545 73 343 0.0 0.0 0.00 0.51 0.51 76 1009.7
20260509014042 73 346 0.0 0.0 0.00 0.51 0.51 76 1009.7
20260509013733 73 13 0.0 1.0 0.00 0.51 0.51 75 1009.9
20260509013539 73 13 0.0 1.0 0.00 0.51 0.51 75 1009.6
20260509013034 73 348 1.0 1.0 0.00 0.51 0.51 75 1009.5
20260509012715 74 330 0.0 1.0 0.00 0.51 0.51 75 1010.0
20260509012531 73 351 0.0 0.0 0.00 0.51 0.51 75 1009.6
20260509012028 73 351 0.0 0.0 0.00 0.51 0.51 75 1009.8
20260509011721 74 338 0.0 1.0 0.00 0.51 0.51 74 1009.9
20260509011526 74 338 0.0 1.0 0.00 0.51 0.51 75 1009.8
20260509011023 74 1 0.0 1.0 0.00 0.51 0.51 74 1009.8
20260509010643 74 0.0 0.0 0.00 0.51 0.51 74 1010.0
20260509010521 74 358 0.0 0.0 0.00 0.51 0.51 74 1009.6
20260509010017 74 346 0.0 0.0 0.00 0.51 0.51 74 1009.9
20260509005708 74 0.0 0.0 0.00 0.51 0.51 74 1010.0
20260509005515 74 347 0.0 0.0 0.00 0.51 0.51 73 1009.7
20260509005015 74 345 0.0 0.0 0.00 0.51 0.51 73 1009.6
20260509004734 74 327 0.0 2.0 0.00 0.51 0.51 73 1009.7
20260509004512 74 334 1.0 1.0 0.00 0.51 0.51 73 1009.4
20260509004009 74 350 0.0 0.0 0.00 0.51 0.51 73 1009.5
20260509003657 74 290 0.0 2.0 0.00 0.51 0.51 72 1009.4
20260509003508 74 342 0.0 0.0 0.00 0.51 0.51 72 1009.0
20260509003004 75 327 0.0 1.0 0.00 0.51 0.51 72 1009.1
20260509002722 75 20 0.0 1.0 0.00 0.51 0.51 72 1009.5
20260509002503 75 60 0.0 0.0 0.00 0.51 0.51 72 1009.3
20260509001959 75 218 1.0 2.0 0.00 0.51 0.51 71 1009.0
20260509001645 75 344 0.0 1.0 0.00 0.51 0.51 71 1009.5
20260509001455 75 334 1.0 1.0 0.00 0.51 0.51 71 1009.1
20260509000952 75 343 1.0 2.0 0.00 0.51 0.51 71 1009.2
20260509000627 76 18 0.0 1.0 0.00 0.51 0.51 70 1009.5
20260509000451 76 16 0.0 0.0 0.00 0.51 0.51 70 1009.2
20260508235946 76 11 0.0 0.0 0.00 0.51 0.51 70 1009.3
20260508235736 76 320 0.0 1.0 0.00 0.51 0.51 70 1009.6
20260508235444 76 304 0.0 0.0 0.00 0.51 0.51 70 1009.4
20260508234940 76 337 0.0 0.0 0.00 0.51 0.51 70 1009.3
20260508234659 76 343 0.0 1.0 0.00 0.51 0.51 69 1009.8
20260508234437 76 30 0.0 0.0 0.00 0.51 0.51 69 1009.3
20260508233935 77 339 2.0 3.0 0.00 0.51 0.51 67 1009.5
20260508233724 78 252 0.0 2.0 0.00 0.51 0.51 67 1009.8
20260508233434 78 240 1.0 1.0 0.00 0.51 0.51 67 1009.5
20260508232930 78 306 0.0 0.0 0.00 0.51 0.51 66 1009.6
20260508232646 78 7 0.0 1.0 0.00 0.51 0.51 66 1009.8
20260508232428 78 309 1.0 1.0 0.00 0.51 0.51 66 1009.4
20260508231925 78 20 1.0 1.0 0.00 0.51 0.51 66 1009.5
20260508231732 78 85 1.0 3.0 0.00 0.51 0.51 67 1009.8
20260508231422 78 5 0.0 0.0 0.00 0.51 0.51 66 1009.6
20260508230919 78 326 0.0 1.0 0.00 0.51 0.51 67 1009.5
20260508230633 78 310 1.0 2.0 0.00 0.51 0.51 67 1009.8
20260508230415 78 231 1.0 2.0 0.00 0.51 0.51 67 1009.4
20260508225912 79 196 0.0 1.0 0.00 0.51 0.51 67 1009.6
20260508225719 78 191 0.0 1.0 0.00 0.51 0.51 67 1009.9
20260508225409 78 186 1.0 1.0 0.00 0.51 0.51 67 1009.6
20260508224907 78 349 0.0 0.0 0.00 0.51 0.51 68 1009.7
20260508224725 79 319 0.0 1.0 0.00 0.51 0.51 67 1010.0
20260508224404 78 332 0.0 0.0 0.00 0.51 0.51 67 1009.7
20260508223902 79 307 0.0 1.0 0.00 0.51 0.51 66 1009.6
20260508223646 79 343 0.0 1.0 0.00 0.51 0.51 66 1009.8
20260508223359 79 348 0.0 0.0 0.00 0.51 0.51 67 1009.5
20260508222856 79 314 1.0 2.0 0.00 0.51 0.51 66 1009.6
20260508222711 79 17 1.0 2.0 0.00 0.51 0.51 66 1009.9
20260508222353 79 344 0.0 0.0 0.00 0.51 0.51 66 1009.6
20260508221850 79 46 0.0 0.0 0.00 0.51 0.51 65 1009.5
20260508221633 79 345 0.0 1.0 0.00 0.51 0.51 66 1009.8
20260508221345 79 305 0.0 0.0 0.00 0.51 0.51 66 1009.6
20260508220842 78 127 0.0 0.0 0.00 0.51 0.51 65 1009.6
20260508220659 78 307 1.0 2.0 0.00 0.51 0.51 66 1009.8
20260508220338 78 299 1.0 2.0 0.00 0.51 0.51 66 1009.5
20260508215835 79 21 1.0 3.0 0.00 0.51 0.51 64 1009.6
20260508215724 79 289 0.0 1.0 0.00 0.51 0.51 65 1009.9
20260508215332 78 346 0.0 1.0 0.00 0.51 0.51 65 1009.6
20260508214829 79 9 0.0 0.0 0.00 0.51 0.51 65 1009.5
20260508214750 78 340 0.0 1.0 0.00 0.51 0.51 65 1009.8
20260508214326 78 1 0.0 0.0 0.00 0.51 0.51 65 1009.2
20260508213822 78 342 0.0 1.0 0.00 0.51 0.51 65 1009.5
20260508213712 78 127 1.0 3.0 0.00 0.51 0.51 65 1009.6
20260508213319 78 30 1.0 3.0 0.00 0.51 0.51 65 1009.4
20260508212816 79 23 1.0 1.0 0.00 0.51 0.51 64 1009.5
20260508212721 79 352 0.0 1.0 0.00 0.51 0.51 64 1009.9
20260508212312 78 311 1.0 1.0 0.00 0.51 0.51 64 1009.4
20260508211808 78 0 0.0 0.0 0.00 0.51 0.51 64 1009.7
20260508211704 80 355 1.0 2.0 0.00 0.51 0.51 63 1010.3
20260508211303 80 15 0.0 0.0 0.00 0.51 0.51 63 1009.9
20260508210802 80 28 0.0 0.0 0.00 0.51 0.51 62 1010.5
20260508210706 79 316 0.0 1.0 0.00 0.51 0.51 63 1010.6
20260508210258 79 16 0.0 1.0 0.00 0.51 0.51 63 1010.3
20260508205755 79 228 1.0 2.0 0.00 0.51 0.51 64 1010.6
20260508205728 78 318 1.0 2.0 0.00 0.51 0.51 64 1010.9
20260508205251 78 328 0.0 0.0 0.00 0.51 0.51 65 1010.7
20260508204748 78 327 0.0 0.0 0.00 0.51 0.51 64 1010.9
20260508204649 78 251 1.0 2.0 0.00 0.51 0.51 64 1011.3
20260508204244 78 240 2.0 2.0 0.00 0.51 0.51 64 1011.0
20260508203740 79 348 1.0 2.0 0.00 0.51 0.51 63 1011.4
20260508203715 79 355 1.0 2.0 0.00 0.51 0.51 63 1011.5
20260508203237 79 343 0.0 1.0 0.00 0.51 0.51 63 1011.2
20260508202732 79 299 0.0 0.0 0.00 0.51 0.51 63 1011.2
20260508202727 79 327 1.0 2.0 0.00 0.51 0.51 63 1011.6
20260508202230 79 347 1.0 1.0 0.00 0.51 0.51 64 1011.1
20260508201727 79 207 1.0 1.0 0.00 0.51 0.51 62 1011.2
20260508201649 80 297 1.0 3.0 0.00 0.51 0.51 62 1011.7
20260508201223 80 344 0.0 0.0 0.00 0.51 0.51 62 1011.3
20260508200720 79 301 0.0 0.0 0.00 0.51 0.51 62 1011.5
20260508200632 80 271 1.0 2.0 0.00 0.51 0.51 61 1011.5
20260508200216 80 342 1.0 2.0 0.00 0.51 0.51 60 1011.2
20260508195739 81 344 0.0 1.0 0.00 0.51 0.51 59 1011.8
20260508195713 81 199 2.0 2.0 0.00 0.51 0.51 58 1011.5
20260508195209 80 340 0.0 0.0 0.00 0.51 0.51 60 1011.6
20260508194706 81 303 0.0 0.0 0.00 0.51 0.51 59 1011.4
20260508194701 82 32 1.0 2.0 0.00 0.51 0.51 58 1011.7
20260508194203 81 9 2.0 2.0 0.00 0.51 0.51 59 1011.3
20260508193727 80 353 0.0 1.0 0.00 0.51 0.51 59 1011.8
20260508193700 81 217 2.0 2.0 0.00 0.51 0.51 58 1011.5
20260508193157 80 340 0.0 0.0 0.00 0.51 0.51 60 1011.3
20260508192653 80 3 1.0 1.0 0.00 0.51 0.51 60 1011.5
20260508192649 80 150 0.0 2.0 0.00 0.51 0.51 59 1011.9
20260508192151 80 336 0.0 0.0 0.00 0.51 0.51 60 1011.5
20260508191714 78 351 0.0 1.0 0.00 0.51 0.51 61 1012.2
20260508191648 78 185 2.0 2.0 0.00 0.51 0.51 62 1011.6
20260508191144 77 351 1.0 1.0 0.00 0.51 0.51 60 1011.8
20260508190642 79 36 0.0 0.0 0.00 0.51 0.51 59 1011.8
20260508190637 80 5 0.0 1.0 0.00 0.51 0.51 59 1012.3
20260508190138 80 41 0.0 1.0 0.00 0.51 0.51 58 1011.8
20260508185703 80 26 1.0 2.0 0.00 0.51 0.51 58 1012.2
20260508185635 80 28 0.0 0.0 0.00 0.51 0.51 59 1011.6
20260508185132 80 312 0.0 0.0 0.00 0.51 0.51 58 1011.9
20260508184728 79 25 0.0 2.0 0.00 0.51 0.51 59 1012.2
20260508184629 79 324 0.0 0.0 0.00 0.51 0.51 61 1011.7
20260508184126 79 273 0.0 0.0 0.00 0.51 0.51 59 1012.0
20260508183651 79 68 0.0 2.0 0.00 0.51 0.51 58 1012.5
20260508183623 79 2 0.0 0.0 0.00 0.51 0.51 59 1012.1
20260508183119 79 1 0.0 0.0 0.00 0.51 0.51 59 1012.1
20260508182716 79 304 0.0 2.0 0.00 0.51 0.51 60 1012.7
20260508182615 79 5 0.0 1.0 0.00 0.51 0.51 60 1012.3
20260508182112 79 336 1.0 2.0 0.00 0.51 0.51 59 1012.5
20260508181639 78 341 0.0 1.0 0.00 0.51 0.51 61 1012.8
20260508181607 78 357 0.0 1.0 0.00 0.51 0.51 59 1012.5
20260508181106 77 328 0.0 0.0 0.00 0.51 0.51 60 1012.8
20260508180704 77 29 1.0 2.0 0.00 0.51 0.51 63 1013.0
20260508180602 77 340 0.0 0.0 0.00 0.51 0.51 63 1012.8
20260508180058 77 3 1.0 1.0 0.00 0.51 0.51 61 1012.6
20260508175647 77 343 0.0 1.0 0.00 0.51 0.51 62 1013.2
20260508175555 78 337 0.0 1.0 0.00 0.51 0.51 61 1012.8
20260508175052 76 333 0.0 0.0 0.00 0.51 0.51 64 1012.9
20260508174815 76 11 1.0 3.0 0.00 0.51 0.51 63 1013.2
20260508174550 76 351 0.0 0.0 0.00 0.51 0.51 65 1013.0
20260508174046 77 0 2.0 2.0 0.00 0.51 0.51 61 1013.0
20260508173838 77 210 1.0 2.0 0.00 0.51 0.51 61 1013.4
20260508173543 76 27 1.0 1.0 0.00 0.51 0.51 62 1013.2
20260508173039 77 326 2.0 2.0 0.00 0.51 0.51 59 1013.2
20260508172640 77 326 0.0 1.0 0.00 0.51 0.51 62 1013.7
20260508172537 77 324 0.0 0.0 0.00 0.51 0.51 61 1013.3
20260508172033 77 343 0.0 0.0 0.00 0.51 0.51 61 1013.5
20260508171705 77 338 0.0 1.0 0.00 0.51 0.51 61 1013.9
20260508171530 76 338 0.0 0.0 0.00 0.51 0.51 62 1013.6
20260508171026 77 344 0.0 0.0 0.00 0.51 0.51 61 1013.8
20260508170627 76 346 0.0 1.0 0.00 0.51 0.51 64 1014.1
20260508170524 76 25 0.0 1.0 0.00 0.51 0.51 63 1013.9
20260508170021 77 345 2.0 2.0 0.00 0.51 0.51 60 1014.0
20260508165652 75 304 1.0 2.0 0.00 0.51 0.51 64 1014.4
20260508165518 74 0 0.0 0.0 0.00 0.51 0.51 65 1014.2
20260508165015 76 318 1.0 1.0 0.00 0.51 0.51 63 1014.1
20260508164718 75 234 0.0 1.0 0.00 0.51 0.51 64 1014.5
20260508164511 75 328 0.0 1.0 0.00 0.51 0.51 65 1014.1
20260508164008 74 261 1.0 2.0 0.00 0.51 0.51 66 1014.3
20260508163804 74 59 0.0 1.0 0.00 0.51 0.51 65 1014.7
20260508163506 74 31 0.0 0.0 0.00 0.51 0.51 65 1014.5
20260508163002 73 359 0.0 1.0 0.00 0.51 0.51 69 1014.6
20260508162745 72 330 0.0 4.0 0.00 0.51 0.51 68 1014.9
20260508162459 73 54 0.0 0.0 0.00 0.51 0.51 68 1014.5
20260508161956 72 353 0.0 1.0 0.00 0.51 0.51 68 1015.0
20260508161453 71 348 0.0 0.0 0.00 0.51 0.51 71 1014.5
20260508160950 71 344 0.0 0.0 0.00 0.51 0.51 72 1014.9
20260508160449 72 201 0.0 1.0 0.00 0.51 0.51 72 1014.9
20260508155944 70 43 1.0 2.0 0.00 0.51 0.51 71 1014.6
20260508155442 69 6 0.0 1.0 0.00 0.51 0.51 75 1014.9
20260508154939 68 355 0.0 0.0 0.00 0.51 0.51 76 1014.8
20260508154437 68 356 0.0 0.0 0.00 0.51 0.51 75 1015.1
20260508153933 69 356 0.0 0.0 0.00 0.51 0.51 76 1015.2
20260508153430 69 330 0.0 0.0 0.00 0.51 0.51 76 1015.2
20260508152926 69 335 0.0 0.0 0.00 0.51 0.51 76 1014.9
20260508152423 69 337 0.0 1.0 0.00 0.51 0.51 75 1014.9
20260508151919 69 348 0.0 0.0 0.00 0.51 0.51 77 1014.9
20260508151416 68 341 0.0 0.0 0.00 0.51 0.51 80 1015.2
20260508151120 67 8 1.0 2.0 0.00 0.51 0.51 81 1015.3
20260508150912 68 335 1.0 2.0 0.00 0.51 0.51 82 1015.1
20260508150409 66 344 0.0 0.0 0.00 0.51 0.51 84 1015.3
20260508150146 66 0.0 0.0 0.00 0.51 0.51 86 1015.5
20260508145905 66 58 0.0 0.0 0.00 0.51 0.51 86 1015.3
20260508145402 65 16 0.0 0.0 0.00 0.51 0.51 90 1015.1
20260508145231 65 0.0 0.0 0.00 0.51 0.51 91 1015.5
20260508144858 65 349 0.0 0.0 0.00 0.51 0.51 91 1015.3
20260508144356 64 356 0.0 0.0 0.00 0.51 0.51 92 1015.4
20260508144257 64 0.0 0.0 0.00 0.51 0.51 92 1015.5
20260508143853 64 343 0.0 0.0 0.00 0.51 0.51 92 1015.2
20260508143351 63 14 0.0 0.0 0.00 0.51 0.51 93 1015.2
20260508143159 63 62 0.0 1.0 0.00 0.51 0.51 95 1015.7
20260508142847 63 62 0.0 1.0 0.00 0.51 0.51 94 1015.5
20260508142344 64 317 0.0 0.0 0.00 0.51 0.51 96 1015.2
20260508142225 63 0.0 0.0 0.00 0.51 0.51 97 1015.6
20260508141840 64 17 0.0 0.0 0.00 0.51 0.51 97 1015.2
20260508141337 62 340 0.0 0.0 0.00 0.51 0.51 97 1015.3
20260508141148 62 0.0 0.0 0.00 0.51 0.51 98 1015.8
20260508140835 62 353 0.0 0.0 0.00 0.51 0.51 98 1015.6
20260508140332 62 329 0.0 0.0 0.00 0.51 0.51 98 1015.5
20260508140150 62 0.0 0.0 0.00 0.51 0.51 98 1015.7
20260508135828 62 346 0.0 0.0 0.00 0.51 0.51 98 1015.4
20260508135324 61 355 0.0 0.0 0.00 0.51 0.51 98 1015.4
20260508135238 62 0.0 0.0 0.00 0.51 0.51 99 1015.8
20260508134820 62 354 0.0 0.0 0.00 0.51 0.51 98 1015.5
20260508134317 61 347 0.0 0.0 0.00 0.51 0.51 99 1015.2
20260508134201 61 0.0 0.0 0.00 0.51 0.51 99 1015.7
20260508133814 62 2 0.0 0.0 0.00 0.51 0.51 99 1015.3
20260508133312 61 346 0.0 0.0 0.00 0.51 0.51 99 1015.4
20260508133227 61 0.0 0.0 0.00 0.51 0.51 99 1015.8
20260508132809 61 346 0.0 0.0 0.00 0.51 0.51 99 1015.4
20260508132307 62 356 0.0 0.0 0.00 0.51 0.51 99 1015.5
20260508132149 61 0.0 0.0 0.01 0.51 0.51 99 1015.5
20260508131802 61 342 0.0 0.0 0.00 0.51 0.51 99 1015.3
20260508131258 61 357 0.0 0.0 0.00 0.51 0.51 99 1015.2
20260508131215 61 0.0 0.0 0.01 0.51 0.51 99 1015.3
20260508130754 61 349 0.0 0.0 0.00 0.51 0.51 99 1015.1
20260508130252 61 21 0.0 1.0 0.00 0.51 0.51 99 1015.2
20260508130138 61 300 0.0 1.0 0.01 0.51 0.51 99 1016.1
20260508125747 60 349 0.0 0.0 0.00 0.51 0.51 99 1016.0
20260508125244 61 343 0.0 0.0 0.00 0.51 0.51 99 1015.7
20260508125223 60 0.0 0.0 0.01 0.51 0.51 99 1016.0
20260508124742 60 359 0.0 0.0 0.00 0.51 0.51 99 1015.8
20260508124239 60 5 0.0 0.0 0.00 0.51 0.51 99 1015.8
20260508124226 60 0.0 0.0 0.01 0.51 0.51 99 1016.4
20260508123737 60 334 0.0 0.0 0.07 0.51 0.51 99 1016.0
20260508123235 60 336 0.0 0.0 0.07 0.51 0.51 99 1015.6
20260508123149 60 0.0 0.0 0.02 0.51 0.51 99 1015.9
20260508122730 60 357 0.0 0.0 0.00 0.50 0.50 99 1015.5
20260508122228 60 341 0.0 0.0 0.00 0.50 0.50 99 1015.7
20260508122215 60 0.0 0.0 0.07 0.50 0.50 99 1016.1
20260508121725 60 331 0.0 0.0 0.00 0.50 0.50 99 1015.8
20260508121224 60 354 0.0 0.0 0.00 0.50 0.50 99 1015.4
20260508121158 60 0.0 0.0 0.14 0.50 0.50 99 1016.0
20260508120721 60 268 0.0 0.0 0.00 0.50 0.50 99 1015.7
20260508120219 60 337 0.0 0.0 0.00 0.50 0.50 99 1015.6
20260508115716 60 353 0.0 0.0 0.00 0.50 0.50 99 1015.7
20260508115213 60 328 0.0 0.0 0.00 0.50 0.50 99 1015.6
20260508114710 60 338 0.0 0.0 0.07 0.50 0.50 99 1015.6
20260508114706 60 0.0 0.0 0.49 0.50 0.50 98 1015.8
20260508114207 60 346 0.0 0.0 0.07 0.50 0.50 98 1015.4
20260508113732 60 0.0 0.0 0.48 0.49 0.49 98 1015.4
20260508113703 60 8 0.0 0.0 0.00 0.49 0.49 98 1015.3
20260508113202 60 356 0.0 0.0 0.28 0.49 0.49 98 1015.1
20260508112657 60 322 0.0 0.0 0.52 0.49 0.49 98 1015.5
20260508112654 60 0.0 0.0 0.48 0.49 0.49 98 1015.7
20260508112154 60 316 0.0 0.0 0.50 0.44 0.44 98 1015.5
20260508111720 60 0.0 0.0 0.39 0.40 0.40 98 1015.5
20260508111651 60 12 0.0 0.0 0.35 0.41 0.41 98 1014.9
20260508111149 60 348 0.0 0.0 0.28 0.36 0.36 98 1015.0
20260508110646 61 7 0.0 0.0 0.83 0.34 0.34 98 1015.4
20260508110643 61 0.0 0.0 0.33 0.34 0.34 98 1015.9
20260508110142 61 351 0.0 0.0 1.51 0.31 0.31 98 1015.8
20260508105708 61 0.0 0.0 0.16 0.17 0.17 97 1016.2
20260508105637 61 345 0.0 0.0 1.13 0.21 0.21 97 1015.6
20260508105135 61 327 0.0 0.0 0.28 0.06 0.06 97 1016.1
20260508104754 61 0.0 0.0 0.00 0.01 0.01 96 1016.0
20260508104632 61 351 0.0 0.0 0.00 0.01 0.01 97 1015.7
20260508104129 61 348 0.0 0.0 0.00 0.01 0.01 96 1015.8
20260508103657 61 341 0.0 1.0 0.00 0.01 0.01 96 1016.2
20260508103626 61 346 0.0 0.0 0.00 0.01 0.01 96 1016.0
20260508103124 61 347 0.0 0.0 0.00 0.01 0.01 96 1015.3
20260508102723 61 19 0.0 1.0 0.00 0.01 0.01 95 1015.3
20260508102621 61 342 0.0 0.0 0.00 0.01 0.01 95 1015.2
20260508102119 61 351 0.0 0.0 0.00 0.01 0.01 95 1015.6
20260508101705 61 219 0.0 2.0 0.00 0.01 0.01 96 1014.9
20260508101616 61 287 1.0 1.0 0.00 0.01 0.01 96 1014.9
20260508101113 60 344 0.0 0.0 0.00 0.01 0.01 96 1014.2
20260508100711 60 0.0 0.0 0.00 0.01 0.01 96 1014.7
20260508100610 60 338 0.0 0.0 0.00 0.01 0.01 96 1014.4
20260508100108 61 327 0.0 0.0 0.00 0.01 0.01 96 1014.2
20260508095634 60 0.0 0.0 0.00 0.01 0.01 96 1014.7
20260508095605 60 320 0.0 0.0 0.00 0.01 0.01 96 1014.5
20260508095101 60 352 0.0 0.0 0.00 0.01 0.01 96 1014.4
20260508094720 61 0.0 0.0 0.00 0.01 0.01 96 1014.7
20260508094559 61 338 0.0 0.0 0.00 0.01 0.01 96 1014.5
20260508094055 61 351 0.0 0.0 0.00 0.01 0.01 96 1014.3
20260508093725 61 0.0 0.0 0.00 0.01 0.01 96 1014.8
20260508093553 61 359 0.0 0.0 0.00 0.01 0.01 96 1014.5
20260508093050 60 343 0.0 0.0 0.00 0.01 0.01 96 1014.5
20260508092648 60 0.0 0.0 0.00 0.01 0.01 96 1014.8
20260508092547 61 345 0.0 0.0 0.00 0.01 0.01 96 1014.6
20260508092046 60 339 0.0 0.0 0.00 0.01 0.01 96 1014.9
20260508091732 61 0.0 0.0 0.00 0.01 0.01 96 1014.8
20260508091543 61 350 0.0 0.0 0.00 0.01 0.01 96 1014.6
20260508091040 61 346 0.0 0.0 0.00 0.01 0.01 96 1014.5
20260508090635 61 0.0 0.0 0.00 0.01 0.01 95 1015.0
20260508090538 61 355 0.0 0.0 0.00 0.01 0.01 96 1014.6
20260508090034 61 1 0.0 0.0 0.00 0.01 0.01 95 1014.8
20260508085701 61 0.0 0.0 0.01 0.01 0.01 95 1015.3
20260508085531 61 350 0.0 0.0 0.00 0.01 0.01 95 1015.1
20260508085028 61 359 0.0 0.0 0.00 0.01 0.01 95 1014.9
20260508084726 61 0.0 0.0 0.01 0.01 0.01 94 1015.4
20260508084524 60 348 0.0 0.0 0.00 0.01 0.01 94 1015.1
20260508084021 61 308 0.0 1.0 0.00 0.01 0.01 94 1015.2
20260508083812 61 0.0 0.0 0.01 0.01 0.01 94 1015.1
20260508083518 61 339 0.0 0.0 0.00 0.01 0.01 94 1014.9
20260508083015 61 359 0.0 0.0 0.00 0.01 0.01 94 1014.6
20260508082715 60 10 0.0 1.0 0.01 0.01 0.01 93 1015.2
20260508082511 61 10 0.0 1.0 0.00 0.01 0.01 93 1014.8
20260508082008 60 324 0.0 0.0 0.00 0.01 0.01 92 1015.4
20260508081637 61 0.0 0.0 0.01 0.01 0.01 92 1015.4
20260508081506 61 338 0.0 0.0 0.00 0.01 0.01 92 1014.9
20260508081002 61 346 0.0 0.0 0.00 0.01 0.01 92 1015.5
20260508080703 63 0.0 0.0 0.01 0.01 0.01 88 1016.1
20260508080500 62 21 0.0 0.0 0.07 0.01 0.01 90 1015.4
20260508075956 64 348 0.0 1.0 0.07 0.01 0.01 85 1016.4
20260508075625 64 0.0 0.0 0.00 0.00 0.00 78 1016.7
20260508075454 64 343 0.0 0.0 0.00 0.00 0.00 79 1016.5
20260508074952 64 351 0.0 0.0 0.00 0.00 0.00 77 1016.4
20260508074651 64 307 0.0 1.0 0.00 0.00 0.00 77 1016.7
20260508074449 64 343 0.0 0.0 0.00 0.00 0.00 77 1016.4
20260508073945 63 311 0.0 0.0 0.00 0.00 0.00 78 1016.0
20260508073717 63 0.0 0.0 0.00 0.00 0.00 78 1016.2
20260508073443 63 348 0.0 0.0 0.00 0.00 0.00 78 1015.7
20260508072939 63 344 0.0 0.0 0.00 0.00 0.00 79 1015.8
20260508072743 63 0.0 0.0 0.00 0.00 0.00 80 1016.0
20260508072435 63 343 0.0 0.0 0.00 0.00 0.00 80 1015.7
20260508071933 62 352 0.0 0.0 0.00 0.00 0.00 80 1015.5
20260508071705 62 0.0 0.0 0.00 0.00 0.00 80 1016.2
20260508071431 62 346 0.0 0.0 0.00 0.00 0.00 80 1015.8
20260508070923 62 343 0.0 0.0 0.00 0.00 0.00 80 1016.2
20260508070628 62 0.0 0.0 0.00 0.00 0.00 81 1016.3
20260508070421 62 342 0.0 0.0 0.00 0.00 0.00 81 1015.9
20260508065918 62 349 0.0 0.0 0.00 0.00 0.00 81 1015.6
20260508065654 62 0.0 0.0 0.00 0.00 0.00 80 1016.3
20260508065416 62 358 0.0 0.0 0.00 0.00 0.00 80 1016.1
20260508064914 62 351 0.0 0.0 0.00 0.00 0.00 80 1016.2
20260508064617 62 0.0 0.0 0.00 0.00 0.00 79 1016.6
20260508064411 62 359 0.0 0.0 0.00 0.00 0.00 79 1016.2
20260508063909 62 344 0.0 0.0 0.00 0.00 0.00 78 1016.5
20260508063806 62 0.0 0.0 0.00 0.00 0.00 78 1017.0
20260508063407 62 342 0.0 0.0 0.00 0.00 0.00 78 1016.7
20260508062903 62 343 0.0 0.0 0.00 0.00 0.00 79 1016.6
20260508062708 62 0.0 0.0 0.00 0.00 0.00 78 1016.9
20260508062401 62 348 0.0 0.0 0.00 0.00 0.00 78 1016.6
20260508061858 62 348 0.0 0.0 0.00 0.00 0.00 78 1016.9
20260508061733 62 0.0 0.0 0.00 0.00 0.00 78 1016.9
20260508061356 62 345 0.0 0.0 0.00 0.00 0.00 78 1016.7
20260508060851 62 344 0.0 0.0 0.00 0.00 0.00 78 1016.4
20260508060656 62 0.0 0.0 0.00 0.00 0.00 78 1016.6
20260508060349 62 357 0.0 0.0 0.00 0.00 0.00 78 1016.4
20260508055844 62 353 0.0 0.0 0.00 0.00 0.00 78 1016.4
20260508055618 62 0.0 0.0 0.00 0.00 0.00 79 1016.7
20260508055342 62 345 0.0 0.0 0.00 0.00 0.00 78 1016.3
20260508054838 62 346 0.0 0.0 0.00 0.00 0.00 79 1016.2
20260508054644 62 0.0 0.0 0.00 0.00 0.00 79 1016.6
20260508054336 62 350 0.0 0.0 0.00 0.00 0.00 79 1016.3
20260508053832 62 352 0.0 0.0 0.00 0.00 0.00 79 1016.5
20260508053705 62 0.0 0.0 0.00 0.00 0.00 78 1016.8
20260508053330 62 359 0.0 0.0 0.00 0.00 0.00 78 1016.4
20260508052827 63 359 0.0 0.0 0.00 0.00 0.00 78 1016.6
20260508052731 63 0.0 0.0 0.00 0.00 0.00 77 1017.0
20260508052325 63 349 0.0 0.0 0.00 0.00 0.00 77 1016.6
20260508051821 63 347 0.0 0.0 0.00 0.00 0.00 77 1016.5
20260508051654 63 0.0 0.0 0.00 0.00 0.00 76 1017.0
20260508051316 64 349 0.0 0.0 0.00 0.00 0.00 76 1016.8
20260508050813 64 350 0.0 0.0 0.00 0.00 0.00 76 1016.5
20260508050720 64 0.0 0.0 0.00 0.00 0.00 76 1016.7
20260508050310 64 347 0.0 0.0 0.00 0.00 0.00 76 1016.3
20260508045806 64 345 0.0 0.0 0.00 0.00 0.00 75 1016.3
20260508045642 64 0.0 0.0 0.00 0.00 0.00 75 1016.8
20260508045306 64 346 0.0 0.0 0.00 0.00 0.00 75 1016.5
20260508044801 64 356 0.0 0.0 0.00 0.00 0.00 74 1016.4
20260508044605 64 0.0 0.0 0.00 0.00 0.00 74 1016.9
20260508044257 64 345 0.0 0.0 0.00 0.00 0.00 74 1016.6
20260508043753 64 345 0.0 0.0 0.00 0.00 0.00 74 1016.5
20260508043734 64 0.0 0.0 0.00 0.00 0.00 74 1016.7
20260508043251 64 351 0.0 0.0 0.00 0.00 0.00 74 1016.4
20260508042747 64 354 0.0 0.0 0.00 0.00 0.00 74 1016.4
20260508042656 64 0.0 0.0 0.00 0.00 0.00 74 1016.8
20260508042245 64 350 0.0 0.0 0.00 0.00 0.00 74 1016.5
20260508041742 64 349 0.0 0.0 0.00 0.00 0.00 74 1016.4
20260508041722 64 0.0 0.0 0.00 0.00 0.00 74 1016.8
20260508041238 64 347 0.0 0.0 0.00 0.00 0.00 74 1016.5
20260508040735 64 351 0.0 0.0 0.00 0.00 0.00 74 1016.5
20260508040645 64 0.0 0.0 0.00 0.00 0.00 73 1016.7
20260508040232 64 344 0.0 0.0 0.00 0.00 0.00 73 1016.3
20260508035729 64 347 0.0 0.0 0.00 0.00 0.00 73 1016.5
20260508035711 64 0.0 0.0 0.00 0.00 0.00 73 1016.7
20260508035226 64 348 0.0 0.0 0.00 0.00 0.00 73 1016.5
20260508034723 65 357 0.0 0.0 0.00 0.00 0.00 72 1016.4
20260508034633 65 0.0 0.0 0.00 0.00 0.00 71 1016.9
20260508034221 65 343 0.0 0.0 0.00 0.00 0.00 71 1016.6
20260508033717 65 354 0.0 0.0 0.00 0.00 0.00 71 1016.4
20260508033659 65 0.0 0.0 0.00 0.00 0.00 70 1016.7
20260508033216 65 355 0.0 0.0 0.00 0.00 0.00 70 1016.4
20260508032744 66 0.0 0.0 0.00 0.00 0.00 70 1016.8
20260508032712 66 345 0.0 0.0 0.00 0.00 0.00 70 1016.5